| time (UTC) | temp F | wind direction | speed knots | gust knots | rain 1hr in | rain 24hr in | rain mn in | humidity % | barometer mb |
| 20260906225827 | 69 | 345 | 9.6 | 13.9 | 0.00 | 0.00 | 0.00 | 67 | 1015.3 |
| 20260906225728 | 69 | 338 | 7.8 | 10.4 | 0.00 | 0.00 | 0.00 | 67 | 1015.4 |
| 20260906225717 | 70 | 320 | 4.3 | 9.6 | 0.00 | 0.00 | 0.00 | 67 | 1015.3 |
| 20260906225213 | 70 | 330 | 7.0 | 10.4 | 0.00 | 0.00 | 0.00 | 66 | 1015.2 |
| 20260906224728 | 69 | 316 | 4.3 | 5.2 | 0.00 | 0.00 | 0.00 | 66 | 1015.4 |
| 20260906224708 | 70 | 332 | 7.0 | 11.3 | 0.00 | 0.00 | 0.00 | 66 | 1015.2 |
| 20260906224629 | 69 | 332 | 6.1 | 10.4 | 0.00 | 0.00 | 0.00 | 66 | 1015.3 |
| 20260906224204 | 70 | 337 | 10.4 | 13.0 | 0.00 | 0.00 | 0.00 | 65 | 1015.1 |
| 20260906223700 | 70 | 327 | 7.8 | 10.4 | 0.00 | 0.00 | 0.00 | 64 | 1015.1 |
| 20260906223155 | 71 | 304 | 3.5 | 6.1 | 0.00 | 0.00 | 0.00 | 62 | 1015.1 |
| 20260906222653 | 72 | 312 | 3.5 | 8.7 | 0.00 | 0.00 | 0.00 | 62 | 1015.1 |
| 20260906222152 | 72 | 308 | 2.6 | 5.2 | 0.00 | 0.00 | 0.00 | 62 | 1015.1 |
| 20260906221826 | 71 | 323 | 3.5 | 5.2 | 0.00 | 0.00 | 0.00 | 62 | 1015.3 |
| 20260906221650 | 72 | 294 | 1.7 | 3.5 | 0.00 | 0.00 | 0.00 | 62 | 1015.2 |
| 20260906221144 | 72 | 324 | 5.2 | 7.8 | 0.00 | 0.00 | 0.00 | 62 | 1015.2 |
| 20260906220828 | 72 | 322 | 5.2 | 8.7 | 0.00 | 0.00 | 0.00 | 62 | 1015.2 |
| 20260906220640 | 72 | 316 | 2.6 | 4.3 | 0.00 | 0.00 | 0.00 | 62 | 1015.2 |
| 20260906220136 | 72 | 308 | 4.3 | 7.8 | 0.00 | 0.00 | 0.00 | 61 | 1015.1 |
| 20260906215927 | 71 | 329 | 6.1 | 8.7 | 0.00 | 0.00 | 0.00 | 62 | 1015.3 |
| 20260906215634 | 72 | 316 | 4.3 | 8.7 | 0.00 | 0.00 | 0.00 | 61 | 1015.3 |
| 20260906215133 | 72 | 339 | 5.2 | 7.8 | 0.00 | 0.00 | 0.00 | 61 | 1015.2 |
| 20260906215027 | 71 | 17 | 5.2 | 7.8 | 0.00 | 0.00 | 0.00 | 61 | 1015.3 |
| 20260906214632 | 72 | 312 | 2.6 | 4.3 | 0.00 | 0.00 | 0.00 | 61 | 1015.2 |
| 20260906214127 | 72 | 265 | 4.3 | 7.0 | 0.00 | 0.00 | 0.00 | 61 | 1015.2 |
| 20260906214028 | 72 | 273 | 4.3 | 7.0 | 0.00 | 0.00 | 0.00 | 61 | 1015.5 |
| 20260906213626 | 72 | 270 | 0.9 | 1.7 | 0.00 | 0.00 | 0.00 | 63 | 1015.5 |
| 20260906213120 | 71 | 322 | 2.6 | 4.3 | 0.00 | 0.00 | 0.00 | 64 | 1015.4 |
| 20260906213030 | 70 | 322 | 2.6 | 3.5 | 0.00 | 0.00 | 0.00 | 64 | 1015.6 |
| 20260906212618 | 70 | 360 | 5.2 | 7.8 | 0.00 | 0.00 | 0.00 | 65 | 1015.5 |
| 20260906212126 | 69 | 328 | 0.9 | 2.6 | 0.00 | 0.00 | 0.00 | 65 | 1015.7 |
| 20260906212114 | 70 | 315 | 2.6 | 6.1 | 0.00 | 0.00 | 0.00 | 66 | 1015.5 |
| 20260906211613 | 69 | 359 | 4.3 | 6.1 | 0.00 | 0.00 | 0.00 | 66 | 1015.5 |
| 20260906211109 | 69 | 336 | 4.3 | 7.0 | 0.00 | 0.00 | 0.00 | 68 | 1015.5 |
| 20260906210604 | 68 | 323 | 3.5 | 8.7 | 0.00 | 0.00 | 0.00 | 68 | 1015.5 |
| 20260906210059 | 68 | 323 | 6.1 | 9.6 | 0.00 | 0.00 | 0.00 | 69 | 1015.7 |
| 20260906205554 | 68 | 45 | 5.2 | 6.1 | 0.00 | 0.00 | 0.00 | 69 | 1015.7 |
| 20260906205227 | 67 | 46 | 5.2 | 7.0 | 0.00 | 0.00 | 0.00 | 70 | 1016.0 |
| 20260906205128 | 67 | 36 | 6.1 | 7.8 | 0.00 | 0.00 | 0.00 | 70 | 1016.0 |
| 20260906205051 | 68 | 37 | 6.1 | 8.7 | 0.00 | 0.00 | 0.00 | 70 | 1015.8 |
| 20260906204549 | 67 | 2 | 7.0 | 8.7 | 0.00 | 0.00 | 0.00 | 71 | 1015.8 |
| 20260906204226 | 66 | 3 | 7.8 | 11.3 | 0.00 | 0.00 | 0.00 | 72 | 1016.0 |
| 20260906204045 | 66 | 359 | 7.0 | 9.6 | 0.00 | 0.00 | 0.00 | 73 | 1015.9 |
| 20260906203544 | 66 | 45 | 7.0 | 8.7 | 0.00 | 0.00 | 0.00 | 73 | 1015.9 |
| 20260906203227 | 65 | 12 | 7.8 | 9.6 | 0.00 | 0.00 | 0.00 | 74 | 1016.2 |
| 20260906203039 | 66 | 9 | 7.8 | 11.3 | 0.00 | 0.00 | 0.00 | 74 | 1016.0 |
| 20260906202536 | 65 | 38 | 5.2 | 7.8 | 0.00 | 0.00 | 0.00 | 75 | 1016.4 |
| 20260906202129 | 64 | 11 | 7.0 | 9.6 | 0.00 | 0.00 | 0.00 | 77 | 1016.4 |
| 20260906202030 | 65 | 9 | 10.4 | 11.3 | 0.00 | 0.00 | 0.00 | 77 | 1016.3 |
| 20260906201530 | 64 | 51 | 7.0 | 9.6 | 0.00 | 0.00 | 0.00 | 78 | 1016.4 |
| 20260906201228 | 64 | 37 | 9.6 | 12.2 | 0.00 | 0.00 | 0.00 | 77 | 1016.4 |
| 20260906201030 | 64 | 48 | 9.6 | 12.2 | 0.00 | 0.00 | 0.00 | 78 | 1016.4 |
| 20260906200526 | 63 | 359 | 11.3 | 13.0 | 0.00 | 0.00 | 0.00 | 80 | 1016.3 |
| 20260906200227 | 62 | 360 | 9.6 | 13.0 | 0.00 | 0.00 | 0.00 | 80 | 1016.4 |
| 20260906200022 | 62 | 31 | 10.4 | 13.0 | 0.00 | 0.00 | 0.00 | 80 | 1016.3 |
| 20260906195517 | 62 | 30 | 12.2 | 14.8 | 0.00 | 0.00 | 0.00 | 81 | 1016.4 |
| 20260906195014 | 62 | 46 | 10.4 | 13.0 | 0.00 | 0.00 | 0.00 | 82 | 1016.5 |
| 20260906194509 | 61 | 17 | 11.3 | 13.9 | 0.00 | 0.00 | 0.00 | 82 | 1016.5 |
| 20260906194327 | 60 | 13 | 12.2 | 13.9 | 0.00 | 0.00 | 0.00 | 81 | 1016.5 |
| 20260906194227 | 60 | 22 | 12.2 | 14.8 | 0.00 | 0.00 | 0.00 | 82 | 1016.6 |
| 20260906194005 | 61 | 43 | 14.8 | 16.5 | 0.00 | 0.00 | 0.00 | 82 | 1016.4 |
| 20260906193504 | 61 | 21 | 11.3 | 13.9 | 0.00 | 0.00 | 0.00 | 83 | 1016.7 |
| 20260906193228 | 60 | 20 | 13.0 | 15.6 | 0.00 | 0.00 | 0.00 | 83 | 1016.8 |
| 20260906193129 | 60 | 33 | 12.2 | 16.5 | 0.00 | 0.00 | 0.00 | 83 | 1016.7 |
| 20260906193000 | 61 | 21 | 13.9 | 16.5 | 0.00 | 0.00 | 0.00 | 82 | 1016.7 |
| 20260906192455 | 61 | 10 | 13.0 | 14.8 | 0.00 | 0.00 | 0.00 | 83 | 1016.9 |
| 20260906192226 | 60 | 6 | 12.2 | 14.8 | 0.00 | 0.00 | 0.00 | 83 | 1017.0 |
| 20260906191954 | 61 | 28 | 12.2 | 15.6 | 0.00 | 0.00 | 0.00 | 82 | 1016.8 |
| 20260906191449 | 61 | 17 | 14.8 | 18.2 | 0.00 | 0.00 | 0.00 | 80 | 1016.9 |
| 20260906190948 | 63 | 5 | 14.8 | 18.2 | 0.00 | 0.00 | 0.00 | 77 | 1016.9 |
| 20260906190446 | 65 | 354 | 13.0 | 15.6 | 0.00 | 0.00 | 0.00 | 76 | 1017.3 |
| 20260906185942 | 65 | 279 | 2.6 | 4.3 | 0.00 | 0.00 | 0.00 | 77 | 1017.1 |
| 20260906185441 | 65 | 282 | 2.6 | 5.2 | 0.00 | 0.00 | 0.00 | 77 | 1017.3 |
| 20260906184940 | 64 | 308 | 1.7 | 3.5 | 0.00 | 0.00 | 0.00 | 78 | 1017.5 |
| 20260906184436 | 64 | 264 | 3.5 | 6.1 | 0.00 | 0.00 | 0.00 | 79 | 1017.5 |
| 20260906184229 | 63 | 288 | 2.6 | 6.1 | 0.00 | 0.00 | 0.00 | 80 | 1017.8 |
| 20260906183931 | 63 | 270 | 2.6 | 5.2 | 0.00 | 0.00 | 0.00 | 80 | 1017.5 |
| 20260906183427 | 62 | 261 | 3.5 | 5.2 | 0.00 | 0.00 | 0.00 | 81 | 1017.7 |
| 20260906183326 | 62 | 261 | 2.6 | 4.3 | 0.00 | 0.00 | 0.00 | 81 | 1017.8 |
| 20260906182922 | 62 | 270 | 3.5 | 4.3 | 0.00 | 0.00 | 0.00 | 81 | 1017.8 |
| 20260906182418 | 62 | 270 | 3.5 | 4.3 | 0.00 | 0.00 | 0.00 | 81 | 1017.9 |
| 20260906182329 | 62 | 270 | 2.6 | 4.3 | 0.00 | 0.00 | 0.00 | 81 | 1018.1 |
| 20260906181914 | 62 | 294 | 3.5 | 7.0 | 0.00 | 0.00 | 0.00 | 80 | 1018.0 |
| 20260906181409 | 62 | 265 | 3.5 | 5.2 | 0.00 | 0.00 | 0.00 | 80 | 1017.9 |
| 20260906181327 | 62 | 265 | 2.6 | 4.3 | 0.00 | 0.00 | 0.00 | 80 | 1018.1 |
| 20260906180905 | 62 | 267 | 4.3 | 6.1 | 0.00 | 0.00 | 0.00 | 80 | 1017.9 |
| 20260906180359 | 62 | 270 | 3.5 | 5.2 | 0.00 | 0.00 | 0.00 | 80 | 1018.0 |
| 20260906175857 | 62 | 270 | 4.3 | 6.1 | 0.00 | 0.00 | 0.00 | 80 | 1018.0 |
| 20260906175426 | 62 | 246 | 3.5 | 4.3 | 0.00 | 0.00 | 0.00 | 79 | 1018.2 |
| 20260906175352 | 62 | 265 | 4.3 | 5.2 | 0.00 | 0.00 | 0.00 | 78 | 1018.0 |
| 20260906174851 | 63 | 270 | 4.3 | 6.1 | 0.00 | 0.00 | 0.00 | 78 | 1018.1 |
| 20260906174429 | 62 | 270 | 3.5 | 5.2 | 0.00 | 0.00 | 0.00 | 79 | 1018.3 |
| 20260906174350 | 62 | 270 | 2.6 | 5.2 | 0.00 | 0.00 | 0.00 | 78 | 1018.1 |
| 20260906173845 | 62 | 275 | 3.5 | 4.3 | 0.00 | 0.00 | 0.00 | 79 | 1018.2 |
| 20260906173430 | 62 | 251 | 3.5 | 5.2 | 0.00 | 0.00 | 0.00 | 78 | 1018.5 |
| 20260906173341 | 62 | 242 | 4.3 | 7.0 | 0.00 | 0.00 | 0.00 | 79 | 1018.4 |
| 20260906172840 | 62 | 255 | 4.3 | 6.1 | 0.00 | 0.00 | 0.00 | 79 | 1018.4 |
| 20260906172427 | 62 | 270 | 3.5 | 6.1 | 0.00 | 0.00 | 0.00 | 79 | 1018.5 |
| 20260906172337 | 62 | 253 | 4.3 | 7.8 | 0.00 | 0.00 | 0.00 | 79 | 1018.2 |
| 20260906171832 | 62 | 269 | 4.3 | 6.1 | 0.00 | 0.00 | 0.00 | 78 | 1018.2 |
| 20260906171327 | 62 | 254 | 4.3 | 5.2 | 0.00 | 0.00 | 0.00 | 78 | 1018.5 |
| 20260906170822 | 62 | 270 | 2.6 | 3.5 | 0.00 | 0.00 | 0.00 | 79 | 1018.2 |
| 20260906170317 | 62 | 287 | 1.7 | 3.5 | 0.00 | 0.00 | 0.00 | 79 | 1018.4 |
| 20260906165814 | 61 | 237 | 4.3 | 6.1 | 0.00 | 0.00 | 0.00 | 80 | 1018.4 |
| 20260906165308 | 61 | 247 | 4.3 | 6.1 | 0.00 | 0.00 | 0.00 | 80 | 1018.4 |
| 20260906164808 | 61 | 256 | 3.5 | 6.1 | 0.00 | 0.00 | 0.00 | 81 | 1018.4 |
| 20260906164327 | 61 | 220 | 4.3 | 6.1 | 0.00 | 0.00 | 0.00 | 80 | 1018.6 |
| 20260906164302 | 61 | 247 | 4.3 | 7.8 | 0.00 | 0.00 | 0.00 | 80 | 1018.4 |
| 20260906163758 | 61 | 229 | 6.1 | 7.8 | 0.00 | 0.00 | 0.00 | 79 | 1018.4 |
| 20260906163327 | 61 | 229 | 5.2 | 7.0 | 0.00 | 0.00 | 0.00 | 80 | 1018.7 |
| 20260906163254 | 62 | 240 | 4.3 | 7.0 | 0.00 | 0.00 | 0.00 | 80 | 1018.8 |
| 20260906162751 | 62 | 260 | 3.5 | 5.2 | 0.00 | 0.00 | 0.00 | 80 | 1018.7 |
| 20260906162425 | 62 | 246 | 3.5 | 4.3 | 0.00 | 0.00 | 0.00 | 79 | 1018.7 |
| 20260906162251 | 62 | 270 | 2.6 | 3.5 | 0.00 | 0.00 | 0.00 | 80 | 1018.6 |
| 20260906161746 | 62 | 270 | 2.6 | 4.3 | 0.00 | 0.00 | 0.00 | 80 | 1018.7 |
| 20260906161427 | 61 | 292 | 0.0 | 0.9 | 0.00 | 0.00 | 0.00 | 81 | 1018.8 |
| 20260906161245 | 62 | 267 | 1.7 | 3.5 | 0.00 | 0.00 | 0.00 | 80 | 1018.7 |
| 20260906160744 | 61 | 262 | 3.5 | 4.3 | 0.00 | 0.00 | 0.00 | 82 | 1018.7 |
| 20260906160428 | 60 | 225 | 1.7 | 1.7 | 0.00 | 0.00 | 0.00 | 82 | 1018.8 |
| 20260906160328 | 60 | 225 | 1.7 | 3.5 | 0.00 | 0.00 | 0.00 | 81 | 1018.8 |
| 20260906160243 | 61 | 220 | 2.6 | 4.3 | 0.00 | 0.00 | 0.00 | 82 | 1018.7 |
| 20260906155741 | 60 | 270 | 1.7 | 4.3 | 0.00 | 0.00 | 0.00 | 83 | 1018.8 |
| 20260906155327 | 60 | 253 | 2.6 | 3.5 | 0.00 | 0.00 | 0.00 | 82 | 1018.9 |
| 20260906155236 | 60 | 252 | 3.5 | 4.3 | 0.00 | 0.00 | 0.00 | 81 | 1018.8 |
| 20260906154732 | 60 | 247 | 2.6 | 3.5 | 0.00 | 0.00 | 0.00 | 82 | 1019.0 |
| 20260906154328 | 60 | 239 | 3.5 | 6.1 | 0.00 | 0.00 | 0.00 | 82 | 1019.2 |
| 20260906154227 | 61 | 241 | 2.6 | 4.3 | 0.00 | 0.00 | 0.00 | 83 | 1019.0 |
| 20260906153725 | 61 | 247 | 0.9 | 1.7 | 0.00 | 0.00 | 0.00 | 84 | 1018.9 |
| 20260906153220 | 60 | 236 | 1.7 | 2.6 | 0.00 | 0.00 | 0.00 | 85 | 1019.2 |
| 20260906152715 | 59 | 292 | 1.7 | 3.5 | 0.00 | 0.00 | 0.00 | 87 | 1019.2 |
| 20260906152425 | 58 | 270 | 1.7 | 3.5 | 0.00 | 0.00 | 0.00 | 87 | 1019.3 |
| 20260906152327 | 58 | 270 | 1.7 | 2.6 | 0.00 | 0.00 | 0.00 | 87 | 1019.2 |
| 20260906152210 | 58 | 261 | 3.5 | 5.2 | 0.00 | 0.00 | 0.00 | 87 | 1019.1 |
| 20260906151704 | 58 | 247 | 2.6 | 3.5 | 0.00 | 0.00 | 0.00 | 88 | 1019.2 |
| 20260906151327 | 58 | 247 | 2.6 | 4.3 | 0.00 | 0.00 | 0.00 | 89 | 1019.2 |
| 20260906151200 | 58 | 245 | 2.6 | 3.5 | 0.00 | 0.00 | 0.00 | 89 | 1019.1 |
| 20260906150655 | 57 | 22 | 0.0 | 0.9 | 0.00 | 0.00 | 0.00 | 90 | 1019.0 |
| 20260906150327 | 57 | 22 | 0.0 | 0.9 | 0.00 | 0.00 | 0.00 | 90 | 1019.1 |
| 20260906150150 | 57 | 22 | 1.7 | 2.6 | 0.00 | 0.00 | 0.00 | 90 | 1019.0 |
| 20260906145649 | 56 | 1 | 2.6 | 3.5 | 0.00 | 0.00 | 0.00 | 92 | 1018.9 |
| 20260906145328 | 56 | 355 | 2.6 | 3.5 | 0.00 | 0.00 | 0.00 | 91 | 1018.9 |
| 20260906145148 | 56 | 329 | 2.6 | 4.3 | 0.00 | 0.00 | 0.00 | 92 | 1018.9 |
| 20260906144643 | 56 | 360 | 0.9 | 1.7 | 0.00 | 0.00 | 0.00 | 93 | 1019.1 |
| 20260906144327 | 55 | 360 | 0.9 | 2.6 | 0.00 | 0.00 | 0.00 | 93 | 1019.3 |
| 20260906144138 | 55 | 332 | 1.7 | 3.5 | 0.00 | 0.00 | 0.00 | 93 | 1019.2 |
| 20260906143637 | 55 | 271 | 1.7 | 2.6 | 0.00 | 0.00 | 0.00 | 92 | 1019.2 |
| 20260906143327 | 55 | 315 | 0.0 | 0.9 | 0.00 | 0.00 | 0.00 | 92 | 1019.3 |
| 20260906143135 | 55 | 360 | 0.0 | 0.9 | 0.00 | 0.00 | 0.00 | 94 | 1019.2 |
| 20260906142634 | 55 | 22 | 0.0 | 0.0 | 0.00 | 0.00 | 0.00 | 94 | 1019.2 |
| 20260906142328 | 55 | 22 | 0.0 | 0.9 | 0.00 | 0.00 | 0.00 | 94 | 1019.4 |
| 20260906142129 | 55 | 22 | 1.7 | 1.7 | 0.00 | 0.00 | 0.00 | 94 | 1019.1 |
| 20260906141628 | 55 | 22 | 2.6 | 3.5 | 0.00 | 0.00 | 0.00 | 94 | 1018.9 |
| 20260906141329 | 54 | 4 | 1.7 | 2.6 | 0.00 | 0.00 | 0.00 | 94 | 1019.0 |
| 20260906141124 | 54 | 352 | 2.6 | 3.5 | 0.00 | 0.00 | 0.00 | 95 | 1018.8 |
| 20260906140622 | 54 | 225 | 0.0 | 0.0 | 0.00 | 0.00 | 0.00 | 94 | 1018.9 |
| 20260906140328 | 53 | 225 | 0.0 | 0.9 | 0.00 | 0.00 | 0.00 | 95 | 1019.0 |
| 20260906140227 | 53 | 225 | 0.9 | 1.7 | 0.00 | 0.00 | 0.00 | 95 | 1019.1 |
| 20260906140118 | 53 | 225 | 1.7 | 2.6 | 0.00 | 0.00 | 0.00 | 95 | 1019.0 |
| 20260906135614 | 53 | 225 | 2.6 | 3.5 | 0.00 | 0.00 | 0.00 | 95 | 1019.1 |
| 20260906135226 | 52 | 225 | 1.7 | 2.6 | 0.00 | 0.00 | 0.00 | 95 | 1019.1 |
| 20260906135128 | 52 | 225 | 1.7 | 2.6 | 0.00 | 0.00 | 0.00 | 95 | 1019.1 |
| 20260906135111 | 53 | 225 | 2.6 | 2.6 | 0.00 | 0.00 | 0.00 | 95 | 1018.9 |
| 20260906134606 | 52 | 225 | 1.7 | 2.6 | 0.00 | 0.00 | 0.00 | 95 | 1019.2 |
| 20260906134127 | 51 | 225 | 0.9 | 1.7 | 0.00 | 0.00 | 0.00 | 95 | 1019.3 |
| 20260906134101 | 52 | 225 | 1.7 | 3.5 | 0.00 | 0.00 | 0.00 | 95 | 1019.2 |
| 20260906133556 | 52 | 202 | 2.6 | 3.5 | 0.00 | 0.00 | 0.00 | 95 | 1019.2 |
| 20260906133128 | 51 | 225 | 2.6 | 4.3 | 0.00 | 0.00 | 0.00 | 95 | 1019.2 |
| 20260906133051 | 51 | 225 | 2.6 | 3.5 | 0.00 | 0.00 | 0.00 | 95 | 1019.1 |
| 20260906132546 | 51 | 225 | 2.6 | 4.3 | 0.00 | 0.00 | 0.00 | 95 | 1019.0 |
| 20260906132128 | 50 | 186 | 0.9 | 1.7 | 0.00 | 0.00 | 0.00 | 95 | 1019.0 |
| 20260906132042 | 50 | 180 | 2.6 | 3.5 | 0.00 | 0.00 | 0.00 | 94 | 1018.8 |
| 20260906131537 | 50 | 225 | 1.7 | 2.6 | 0.00 | 0.00 | 0.00 | 95 | 1018.8 |
| 20260906131128 | 50 | 225 | 2.6 | 3.5 | 0.00 | 0.00 | 0.00 | 94 | 1018.8 |
| 20260906131032 | 50 | 225 | 2.6 | 3.5 | 0.00 | 0.00 | 0.00 | 94 | 1018.6 |
| 20260906130532 | 50 | 225 | 3.5 | 3.5 | 0.00 | 0.00 | 0.00 | 95 | 1018.8 |
| 20260906130128 | 50 | 225 | 3.5 | 4.3 | 0.00 | 0.00 | 0.00 | 95 | 1018.9 |
| 20260906130027 | 50 | 225 | 3.5 | 4.3 | 0.00 | 0.00 | 0.00 | 94 | 1018.8 |
| 20260906125524 | 50 | 210 | 3.5 | 5.2 | 0.00 | 0.00 | 0.00 | 94 | 1018.7 |
| 20260906125128 | 50 | 187 | 3.5 | 5.2 | 0.00 | 0.00 | 0.00 | 94 | 1018.6 |
| 20260906125019 | 51 | 184 | 3.5 | 6.1 | 0.00 | 0.00 | 0.00 | 94 | 1018.6 |
| 20260906124514 | 50 | 180 | 1.7 | 3.5 | 0.00 | 0.00 | 0.00 | 94 | 1018.4 |
| 20260906124226 | 49 | 180 | 2.6 | 2.6 | 0.00 | 0.00 | 0.00 | 94 | 1018.5 |
| 20260906124130 | 49 | 180 | 2.6 | 2.6 | 0.00 | 0.00 | 0.00 | 94 | 1018.4 |
| 20260906124009 | 49 | 149 | 3.5 | 4.3 | 0.00 | 0.00 | 0.00 | 94 | 1018.2 |
| 20260906123508 | 49 | 135 | 3.5 | 4.3 | 0.00 | 0.00 | 0.00 | 94 | 1018.2 |
| 20260906123129 | 50 | 142 | 4.3 | 5.2 | 0.00 | 0.00 | 0.00 | 94 | 1018.4 |
| 20260906123003 | 51 | 138 | 3.5 | 4.3 | 0.00 | 0.00 | 0.00 | 94 | 1018.2 |
| 20260906122457 | 51 | 45 | 6.1 | 7.0 | 0.00 | 0.00 | 0.00 | 94 | 1018.2 |
| 20260906122129 | 50 | 67 | 5.2 | 6.1 | 0.00 | 0.00 | 0.00 | 94 | 1018.3 |
| 20260906121954 | 50 | 67 | 5.2 | 6.1 | 0.00 | 0.00 | 0.00 | 94 | 1018.1 |
| 20260906121450 | 51 | 90 | 6.1 | 7.0 | 0.00 | 0.00 | 0.00 | 94 | 1018.0 |
| 20260906121227 | 50 | 90 | 4.3 | 5.2 | 0.00 | 0.00 | 0.00 | 94 | 1018.2 |
| 20260906120946 | 51 | 90 | 4.3 | 5.2 | 0.00 | 0.00 | 0.00 | 94 | 1018.0 |
| 20260906120441 | 50 | 90 | 4.3 | 5.2 | 0.00 | 0.00 | 0.00 | 93 | 1018.0 |
| 20260906115937 | 50 | 90 | 6.1 | 7.0 | 0.00 | 0.00 | 0.00 | 94 | 1018.0 |
| 20260906115433 | 50 | 90 | 5.2 | 7.0 | 0.00 | 0.00 | 0.00 | 94 | 1018.2 |
| 20260906114932 | 50 | 90 | 4.3 | 6.1 | 0.00 | 0.00 | 0.00 | 92 | 1018.2 |
| 20260906114427 | 51 | 67 | 7.0 | 7.0 | 0.00 | 0.00 | 0.00 | 93 | 1018.4 |
| 20260906114227 | 51 | 67 | 6.1 | 6.1 | 0.00 | 0.00 | 0.00 | 93 | 1018.6 |
| 20260906113923 | 52 | 45 | 6.1 | 7.0 | 0.00 | 0.00 | 0.00 | 93 | 1018.2 |
| 20260906113421 | 52 | 45 | 7.0 | 7.8 | 0.00 | 0.00 | 0.00 | 94 | 1018.2 |
| 20260906113227 | 51 | 45 | 6.1 | 7.8 | 0.00 | 0.00 | 0.00 | 94 | 1018.5 |
| 20260906112917 | 52 | 19 | 6.1 | 7.0 | 0.00 | 0.00 | 0.00 | 93 | 1018.4 |
| 20260906112413 | 52 | 360 | 5.2 | 6.1 | 0.00 | 0.00 | 0.00 | 93 | 1018.6 |
| 20260906112227 | 51 | 360 | 5.2 | 6.1 | 0.00 | 0.00 | 0.00 | 93 | 1018.7 |
| 20260906111908 | 52 | 360 | 5.2 | 6.1 | 0.00 | 0.00 | 0.00 | 93 | 1018.7 |
| 20260906111407 | 52 | 360 | 6.1 | 6.1 | 0.00 | 0.00 | 0.00 | 93 | 1018.9 |
| 20260906111227 | 51 | 360 | 5.2 | 5.2 | 0.00 | 0.00 | 0.00 | 93 | 1018.9 |
| 20260906110903 | 52 | 360 | 6.1 | 6.1 | 0.00 | 0.00 | 0.00 | 93 | 1018.8 |
| 20260906110358 | 52 | 360 | 6.1 | 7.0 | 0.00 | 0.00 | 0.00 | 92 | 1018.9 |
| 20260906105857 | 52 | 360 | 5.2 | 6.1 | 0.00 | 0.00 | 0.00 | 92 | 1018.8 |
| 20260906105353 | 52 | 350 | 5.2 | 7.0 | 0.00 | 0.00 | 0.00 | 91 | 1018.8 |
| 20260906105227 | 52 | 337 | 4.3 | 6.1 | 0.00 | 0.00 | 0.00 | 92 | 1019.0 |
| 20260906105128 | 52 | 337 | 4.3 | 5.2 | 0.00 | 0.00 | 0.00 | 92 | 1019.0 |
| 20260906104848 | 52 | 347 | 5.2 | 6.1 | 0.00 | 0.00 | 0.00 | 91 | 1018.8 |
| 20260906104347 | 52 | 360 | 7.8 | 9.6 | 0.00 | 0.00 | 0.00 | 91 | 1018.6 |
| 20260906104227 | 52 | 4 | 7.8 | 9.6 | 0.00 | 0.00 | 0.00 | 91 | 1018.7 |
| 20260906103846 | 52 | 360 | 6.1 | 7.0 | 0.00 | 0.00 | 0.00 | 91 | 1018.6 |
| 20260906103344 | 52 | 360 | 7.0 | 8.7 | 0.00 | 0.00 | 0.00 | 91 | 1018.7 |
| 20260906103229 | 52 | 360 | 6.1 | 8.7 | 0.00 | 0.00 | 0.00 | 91 | 1018.8 |
| 20260906102840 | 52 | 22 | 5.2 | 6.1 | 0.00 | 0.00 | 0.00 | 91 | 1018.8 |
| 20260906102339 | 52 | 41 | 6.1 | 7.8 | 0.00 | 0.00 | 0.00 | 91 | 1018.6 |
| 20260906102327 | 51 | 41 | 6.1 | 7.8 | 0.00 | 0.00 | 0.00 | 91 | 1018.7 |
| 20260906102227 | 51 | 37 | 5.2 | 7.8 | 0.00 | 0.00 | 0.00 | 91 | 1018.7 |
| 20260906101834 | 52 | 18 | 5.2 | 7.0 | 0.00 | 0.00 | 0.00 | 90 | 1018.7 |
| 20260906101329 | 52 | 22 | 4.3 | 6.1 | 0.00 | 0.00 | 0.00 | 90 | 1018.6 |
| 20260906101226 | 51 | 22 | 5.2 | 6.1 | 0.00 | 0.00 | 0.00 | 90 | 1018.8 |
| 20260906100825 | 52 | 360 | 5.2 | 5.2 | 0.00 | 0.00 | 0.00 | 89 | 1018.4 |
| 20260906100324 | 52 | 349 | 4.3 | 6.1 | 0.00 | 0.00 | 0.00 | 88 | 1018.4 |
| 20260906100227 | 51 | 349 | 4.3 | 5.2 | 0.00 | 0.00 | 0.00 | 88 | 1018.6 |
| 20260906095819 | 52 | 360 | 4.3 | 6.1 | 0.00 | 0.00 | 0.00 | 87 | 1018.6 |
| 20260906095315 | 52 | 337 | 4.3 | 6.1 | 0.00 | 0.00 | 0.00 | 86 | 1018.4 |
| 20260906095227 | 52 | 337 | 4.3 | 6.1 | 0.00 | 0.00 | 0.00 | 86 | 1018.5 |
| 20260906094814 | 53 | 356 | 4.3 | 5.2 | 0.00 | 0.00 | 0.00 | 84 | 1018.6 |
| 20260906094326 | 53 | 360 | 3.5 | 4.3 | 0.00 | 0.00 | 0.00 | 85 | 1018.5 |
| 20260906094309 | 54 | 360 | 4.3 | 6.1 | 0.00 | 0.00 | 0.00 | 85 | 1018.4 |
| 20260906094227 | 53 | 360 | 4.3 | 5.2 | 0.00 | 0.00 | 0.00 | 85 | 1018.6 |
| 20260906093806 | 54 | 45 | 1.7 | 1.7 | 0.00 | 0.00 | 0.00 | 85 | 1018.4 |
| 20260906093301 | 54 | 45 | 1.7 | 1.7 | 0.00 | 0.00 | 0.00 | 85 | 1018.2 |
| 20260906093229 | 54 | 45 | 0.9 | 1.7 | 0.00 | 0.00 | 0.00 | 85 | 1018.5 |
| 20260906093127 | 54 | 45 | 1.7 | 1.7 | 0.00 | 0.00 | 0.00 | 85 | 1018.6 |
| 20260906092755 | 54 | 45 | 2.6 | 3.5 | 0.00 | 0.00 | 0.00 | 84 | 1018.2 |
| 20260906092250 | 54 | 45 | 3.5 | 3.5 | 0.00 | 0.00 | 0.00 | 84 | 1018.2 |
| 20260906092128 | 54 | 29 | 2.6 | 2.6 | 0.00 | 0.00 | 0.00 | 84 | 1018.4 |
| 20260906092026 | 54 | 22 | 2.6 | 3.5 | 0.00 | 0.00 | 0.00 | 84 | 1018.5 |
| 20260906091746 | 55 | 22 | 2.6 | 2.6 | 0.00 | 0.00 | 0.00 | 84 | 1018.2 |
| 20260906091242 | 55 | 360 | 0.9 | 1.7 | 0.00 | 0.00 | 0.00 | 84 | 1018.2 |
| 20260906091027 | 55 | 360 | 0.9 | 1.7 | 0.00 | 0.00 | 0.00 | 84 | 1018.4 |
| 20260906090738 | 55 | 360 | 0.0 | 0.0 | 0.00 | 0.00 | 0.00 | 84 | 1018.2 |
| 20260906090237 | 55 | 360 | 0.0 | 0.0 | 0.00 | 0.00 | 0.00 | 84 | 1018.2 |
| 20260906090028 | 55 | 360 | 0.0 | 0.0 | 0.00 | 0.00 | 0.00 | 83 | 1018.5 |
| 20260906085737 | 55 | 360 | 0.0 | 0.0 | 0.00 | 0.00 | 0.00 | 84 | 1018.2 |
| 20260906085236 | 55 | 360 | 0.9 | 0.9 | 0.00 | 0.00 | 0.00 | 84 | 1018.4 |
| 20260906084730 | 55 | 360 | 0.9 | 2.6 | 0.00 | 0.00 | 0.00 | 83 | 1018.4 |
| 20260906084225 | 55 | 360 | 0.0 | 0.0 | 0.00 | 0.00 | 0.00 | 83 | 1018.7 |
| 20260906084129 | 55 | 360 | 0.0 | 0.0 | 0.00 | 0.00 | 0.00 | 83 | 1018.8 |
| 20260906083719 | 55 | 360 | 0.0 | 0.0 | 0.00 | 0.00 | 0.00 | 82 | 1018.6 |
| 20260906083227 | 55 | 360 | 0.0 | 0.9 | 0.00 | 0.00 | 0.00 | 82 | 1018.8 |
| 20260906083215 | 55 | 360 | 0.0 | 0.9 | 0.00 | 0.00 | 0.00 | 81 | 1018.7 |
| 20260906082710 | 56 | 360 | 0.0 | 0.0 | 0.00 | 0.00 | 0.00 | 80 | 1018.8 |
| 20260906082226 | 55 | 360 | 0.0 | 0.0 | 0.00 | 0.00 | 0.00 | 81 | 1018.9 |
| 20260906082200 | 56 | 360 | 0.0 | 0.0 | 0.00 | 0.00 | 0.00 | 81 | 1018.8 |
| 20260906081655 | 56 | 360 | 0.0 | 0.0 | 0.00 | 0.00 | 0.00 | 81 | 1019.0 |
| 20260906081229 | 56 | 22 | 0.0 | 0.0 | 0.00 | 0.00 | 0.00 | 80 | 1019.2 |
| 20260906081150 | 56 | 22 | 0.0 | 0.0 | 0.00 | 0.00 | 0.00 | 80 | 1019.0 |
| 20260906080647 | 57 | 22 | 0.0 | 0.0 | 0.00 | 0.00 | 0.00 | 80 | 1019.1 |
| 20260906080227 | 56 | 22 | 0.9 | 1.7 | 0.00 | 0.00 | 0.00 | 80 | 1019.2 |
| 20260906080143 | 57 | 22 | 1.7 | 1.7 | 0.00 | 0.00 | 0.00 | 80 | 1019.1 |
| 20260906075642 | 57 | 22 | 1.7 | 2.6 | 0.00 | 0.00 | 0.00 | 80 | 1019.1 |
| 20260906075228 | 56 | 22 | 0.9 | 0.9 | 0.00 | 0.00 | 0.00 | 79 | 1019.5 |
| 20260906075137 | 57 | 22 | 0.0 | 0.0 | 0.00 | 0.00 | 0.00 | 79 | 1019.2 |
| 20260906074632 | 57 | 22 | 2.6 | 2.6 | 0.00 | 0.00 | 0.00 | 79 | 1019.3 |
| 20260906074226 | 57 | 360 | 2.6 | 2.6 | 0.00 | 0.00 | 0.00 | 79 | 1019.6 |
| 20260906074131 | 57 | 360 | 2.6 | 3.5 | 0.00 | 0.00 | 0.00 | 79 | 1019.5 |
| 20260906073626 | 57 | 360 | 4.3 | 5.2 | 0.00 | 0.00 | 0.00 | 78 | 1019.5 |
| 20260906073227 | 57 | 360 | 3.5 | 3.5 | 0.00 | 0.00 | 0.00 | 78 | 1019.7 |
| 20260906073122 | 57 | 360 | 3.5 | 3.5 | 0.00 | 0.00 | 0.00 | 78 | 1019.5 |
| 20260906072617 | 57 | 360 | 2.6 | 2.6 | 0.00 | 0.00 | 0.00 | 77 | 1019.6 |
| 20260906072326 | 57 | 360 | 2.6 | 3.5 | 0.00 | 0.00 | 0.00 | 77 | 1019.8 |
| 20260906072228 | 57 | 360 | 2.6 | 3.5 | 0.00 | 0.00 | 0.00 | 77 | 1019.8 |
| 20260906072112 | 57 | 360 | 4.3 | 4.3 | 0.00 | 0.00 | 0.00 | 77 | 1019.6 |
| 20260906071608 | 58 | 360 | 2.6 | 3.5 | 0.00 | 0.00 | 0.00 | 77 | 1019.7 |
| 20260906071229 | 57 | 360 | 0.9 | 2.6 | 0.00 | 0.00 | 0.00 | 76 | 1019.9 |
| 20260906071103 | 58 | 360 | 2.6 | 2.6 | 0.00 | 0.00 | 0.00 | 76 | 1019.7 |
| 20260906070600 | 58 | 45 | 3.5 | 4.3 | 0.00 | 0.00 | 0.00 | 76 | 1019.8 |
| 20260906070325 | 57 | 45 | 2.6 | 3.5 | 0.00 | 0.00 | 0.00 | 76 | 1020.0 |
| 20260906070055 | 58 | 13 | 3.5 | 4.3 | 0.00 | 0.00 | 0.00 | 76 | 1019.8 |
| 20260906065554 | 58 | 45 | 4.3 | 6.1 | 0.00 | 0.00 | 0.00 | 75 | 1019.8 |
| 20260906065326 | 57 | 28 | 4.3 | 6.1 | 0.00 | 0.00 | 0.00 | 75 | 1020.0 |
| 20260906065227 | 57 | 22 | 4.3 | 7.0 | 0.00 | 0.00 | 0.00 | 75 | 1020.1 |
| 20260906065050 | 58 | 360 | 5.2 | 7.0 | 0.00 | 0.00 | 0.00 | 75 | 1019.8 |
| 20260906064546 | 58 | 12 | 7.8 | 9.6 | 0.00 | 0.00 | 0.00 | 74 | 1019.7 |
| 20260906064228 | 57 | 360 | 11.3 | 14.8 | 0.00 | 0.00 | 0.00 | 75 | 1019.8 |
| 20260906064041 | 58 | 359 | 9.6 | 12.2 | 0.00 | 0.00 | 0.00 | 76 | 1019.8 |
| 20260906063536 | 58 | 16 | 4.3 | 7.0 | 0.00 | 0.00 | 0.00 | 76 | 1020.0 |
| 20260906063228 | 57 | 360 | 2.6 | 3.5 | 0.00 | 0.00 | 0.00 | 76 | 1020.0 |
| 20260906063032 | 58 | 360 | 5.2 | 7.0 | 0.00 | 0.00 | 0.00 | 76 | 1019.9 |
| 20260906062527 | 58 | 359 | 5.2 | 8.7 | 0.00 | 0.00 | 0.00 | 75 | 1019.8 |
| 20260906062227 | 57 | 348 | 5.2 | 8.7 | 0.00 | 0.00 | 0.00 | 76 | 1019.9 |
| 20260906062021 | 58 | 356 | 8.7 | 12.2 | 0.00 | 0.00 | 0.00 | 76 | 1019.8 |
| 20260906061518 | 58 | 337 | 7.0 | 8.7 | 0.00 | 0.00 | 0.00 | 76 | 1019.8 |
| 20260906061016 | 58 | 351 | 7.0 | 7.8 | 0.00 | 0.00 | 0.00 | 76 | 1019.8 |
| 20260906060513 | 58 | 335 | 6.1 | 7.8 | 0.00 | 0.00 | 0.00 | 76 | 1019.8 |
| 20260906060227 | 58 | 342 | 5.2 | 6.1 | 0.00 | 0.00 | 0.00 | 75 | 1019.9 |
| 20260906060010 | 58 | 333 | 5.2 | 7.8 | 0.00 | 0.00 | 0.00 | 76 | 1019.7 |
| 20260906055505 | 58 | 336 | 7.8 | 10.4 | 0.00 | 0.00 | 0.00 | 76 | 1019.7 |
| 20260906055232 | 58 | 339 | 7.8 | 10.4 | 0.00 | 0.00 | 0.00 | 76 | 1019.7 |
| 20260906055000 | 58 | 340 | 9.6 | 10.4 | 0.00 | 0.00 | 0.00 | 76 | 1019.7 |
| 20260906054455 | 58 | 353 | 4.3 | 7.0 | 0.00 | 0.00 | 0.00 | 76 | 1019.6 |
| 20260906053950 | 59 | 344 | 7.0 | 9.6 | 0.00 | 0.00 | 0.00 | 75 | 1019.7 |
| 20260906053447 | 59 | 333 | 4.3 | 7.8 | 0.00 | 0.00 | 0.00 | 75 | 1019.6 |
| 20260906053330 | 59 | 337 | 2.6 | 4.3 | 0.00 | 0.00 | 0.00 | 75 | 1019.7 |
| 20260906052942 | 60 | 337 | 0.9 | 0.9 | 0.00 | 0.00 | 0.00 | 75 | 1019.7 |
| 20260906052438 | 60 | 337 | 0.0 | 0.0 | 0.00 | 0.00 | 0.00 | 73 | 1019.7 |
| 20260906052429 | 59 | 337 | 0.0 | 0.0 | 0.00 | 0.00 | 0.00 | 73 | 1019.8 |
| 20260906051935 | 60 | 360 | 0.0 | 0.0 | 0.00 | 0.00 | 0.00 | 74 | 1019.7 |
| 20260906051430 | 60 | 360 | 0.0 | 0.9 | 0.00 | 0.00 | 0.00 | 74 | 1019.6 |
| 20260906051331 | 59 | 360 | 0.0 | 0.9 | 0.00 | 0.00 | 0.00 | 74 | 1019.7 |
| 20260906050926 | 60 | 360 | 1.7 | 2.6 | 0.00 | 0.00 | 0.00 | 74 | 1019.6 |
| 20260906050425 | 60 | 45 | 0.0 | 0.0 | 0.00 | 0.00 | 0.00 | 74 | 1019.6 |
| 20260906050332 | 59 | 45 | 0.0 | 0.0 | 0.00 | 0.00 | 0.00 | 74 | 1019.7 |
| 20260906045925 | 60 | 45 | 2.6 | 3.5 | 0.00 | 0.00 | 0.00 | 74 | 1019.5 |
| 20260906045423 | 60 | 22 | 3.5 | 4.3 | 0.00 | 0.00 | 0.00 | 74 | 1019.3 |
| 20260906044919 | 60 | 13 | 5.2 | 6.1 | 0.00 | 0.00 | 0.00 | 74 | 1019.3 |
| 20260906044430 | 59 | 22 | 1.7 | 3.5 | 0.00 | 0.00 | 0.00 | 74 | 1019.5 |
| 20260906044414 | 60 | 22 | 3.5 | 4.3 | 0.00 | 0.00 | 0.00 | 74 | 1019.2 |
| 20260906044332 | 59 | 22 | 2.6 | 4.3 | 0.00 | 0.00 | 0.00 | 74 | 1019.4 |
| 20260906043910 | 60 | 22 | 1.7 | 3.5 | 0.00 | 0.00 | 0.00 | 74 | 1019.5 |
| 20260906043406 | 60 | 6 | 6.1 | 7.8 | 0.00 | 0.00 | 0.00 | 74 | 1019.2 |
| 20260906043333 | 59 | 6 | 5.2 | 7.0 | 0.00 | 0.00 | 0.00 | 74 | 1019.4 |
| 20260906043230 | 59 | 16 | 5.2 | 6.1 | 0.00 | 0.00 | 0.00 | 74 | 1019.4 |
| 20260906042901 | 60 | 7 | 5.2 | 6.1 | 0.00 | 0.00 | 0.00 | 74 | 1019.1 |
| 20260906042359 | 60 | 46 | 4.3 | 5.2 | 0.00 | 0.00 | 0.00 | 74 | 1019.2 |
| 20260906042130 | 59 | 67 | 2.6 | 4.3 | 0.00 | 0.00 | 0.00 | 74 | 1019.2 |
| 20260906041854 | 60 | 56 | 3.5 | 5.2 | 0.00 | 0.00 | 0.00 | 74 | 1019.0 |
| 20260906041350 | 60 | 45 | 5.2 | 7.8 | 0.00 | 0.00 | 0.00 | 72 | 1018.9 |
| 20260906041131 | 59 | 35 | 7.8 | 9.6 | 0.00 | 0.00 | 0.00 | 73 | 1019.2 |
| 20260906040845 | 60 | 45 | 7.8 | 9.6 | 0.00 | 0.00 | 0.00 | 72 | 1019.0 |
| 20260906040340 | 60 | 32 | 7.8 | 9.6 | 0.00 | 0.00 | 0.00 | 72 | 1019.1 |
| 20260906035836 | 60 | 43 | 7.8 | 9.6 | 0.00 | 0.00 | 0.00 | 72 | 1019.0 |
| 20260906035331 | 61 | 35 | 8.7 | 11.3 | 0.00 | 0.00 | 0.00 | 71 | 1019.0 |
| 20260906034826 | 61 | 24 | 9.6 | 11.3 | 0.00 | 0.00 | 0.00 | 70 | 1019.0 |
| 20260906034321 | 61 | 23 | 11.3 | 13.0 | 0.00 | 0.00 | 0.00 | 70 | 1019.0 |
| 20260906034032 | 61 | 22 | 11.3 | 14.8 | 0.00 | 0.00 | 0.00 | 70 | 1018.9 |
| 20260906033817 | 61 | 16 | 12.2 | 15.6 | 0.00 | 0.00 | 0.00 | 69 | 1018.7 |
| 20260906033316 | 61 | 21 | 12.2 | 15.6 | 0.00 | 0.00 | 0.00 | 69 | 1018.9 |
| 20260906033032 | 61 | 20 | 13.0 | 15.6 | 0.00 | 0.00 | 0.00 | 68 | 1019.0 |
| 20260906032812 | 62 | 34 | 13.9 | 15.6 | 0.00 | 0.00 | 0.00 | 68 | 1018.7 |
| 20260906032308 | 62 | 39 | 13.9 | 16.5 | 0.00 | 0.00 | 0.00 | 67 | 1018.7 |
| 20260906032031 | 61 | 35 | 11.3 | 13.9 | 0.00 | 0.00 | 0.00 | 67 | 1018.8 |
| 20260906031802 | 62 | 25 | 15.6 | 19.1 | 0.00 | 0.00 | 0.00 | 66 | 1018.7 |
| 20260906031253 | 62 | 29 | 13.0 | 16.5 | 0.00 | 0.00 | 0.00 | 65 | 1018.8 |
| 20260906031031 | 62 | 26 | 12.2 | 15.6 | 0.00 | 0.00 | 0.00 | 64 | 1018.8 |
| 20260906030753 | 62 | 24 | 17.4 | 19.1 | 0.00 | 0.00 | 0.00 | 64 | 1018.6 |
| 20260906030248 | 63 | 18 | 14.8 | 17.4 | 0.00 | 0.00 | 0.00 | 62 | 1018.6 |
| 20260906025747 | 63 | 28 | 16.5 | 21.7 | 0.00 | 0.00 | 0.00 | 61 | 1018.5 |
| 20260906025242 | 63 | 36 | 14.8 | 18.2 | 0.00 | 0.00 | 0.00 | 59 | 1018.6 |
| 20260906025032 | 63 | 25 | 16.5 | 20.9 | 0.00 | 0.00 | 0.00 | 59 | 1018.4 |
| 20260906024741 | 64 | 30 | 14.8 | 19.1 | 0.00 | 0.00 | 0.00 | 57 | 1018.5 |
| 20260906024240 | 64 | 24 | 13.0 | 16.5 | 0.00 | 0.00 | 0.00 | 56 | 1018.4 |
| 20260906024033 | 64 | 17 | 13.0 | 16.5 | 0.00 | 0.00 | 0.00 | 55 | 1018.5 |
| 20260906023735 | 65 | 22 | 13.0 | 18.2 | 0.00 | 0.00 | 0.00 | 54 | 1018.6 |
| 20260906023231 | 65 | 24 | 16.5 | 20.0 | 0.00 | 0.00 | 0.00 | 53 | 1018.2 |
| 20260906023031 | 65 | 27 | 14.8 | 18.2 | 0.00 | 0.00 | 0.00 | 52 | 1018.4 |
| 20260906022726 | 66 | 28 | 15.6 | 20.9 | 0.00 | 0.00 | 0.00 | 51 | 1018.2 |
| 20260906022221 | 66 | 23 | 13.9 | 15.6 | 0.00 | 0.00 | 0.00 | 48 | 1018.1 |
| 20260906022032 | 65 | 26 | 13.9 | 18.2 | 0.00 | 0.00 | 0.00 | 48 | 1018.3 |
| 20260906021930 | 65 | 21 | 14.8 | 17.4 | 0.00 | 0.00 | 0.00 | 48 | 1018.1 |
| 20260906021717 | 66 | 23 | 13.9 | 18.2 | 0.00 | 0.00 | 0.00 | 46 | 1018.1 |
| 20260906021216 | 66 | 45 | 5.2 | 6.1 | 0.00 | 0.00 | 0.00 | 46 | 1018.4 |
| 20260906020931 | 66 | 56 | 5.2 | 6.1 | 0.00 | 0.00 | 0.00 | 46 | 1018.3 |
| 20260906020711 | 67 | 67 | 6.1 | 7.0 | 0.00 | 0.00 | 0.00 | 46 | 1018.1 |
| 20260906020206 | 67 | 63 | 7.0 | 7.8 | 0.00 | 0.00 | 0.00 | 45 | 1018.0 |
| 20260906015932 | 67 | 45 | 6.1 | 7.0 | 0.00 | 0.00 | 0.00 | 44 | 1018.2 |
| 20260906015700 | 67 | 45 | 7.0 | 7.0 | 0.00 | 0.00 | 0.00 | 44 | 1018.0 |
| 20260906015158 | 68 | 45 | 7.8 | 8.7 | 0.00 | 0.00 | 0.00 | 44 | 1018.0 |
| 20260906014653 | 68 | 45 | 7.8 | 8.7 | 0.00 | 0.00 | 0.00 | 43 | 1017.9 |
| 20260906014149 | 69 | 45 | 7.8 | 9.6 | 0.00 | 0.00 | 0.00 | 42 | 1017.8 |
| 20260906014032 | 69 | 51 | 7.8 | 9.6 | 0.00 | 0.00 | 0.00 | 42 | 1018.1 |
| 20260906013645 | 70 | 58 | 7.8 | 9.6 | 0.00 | 0.00 | 0.00 | 41 | 1017.9 |
| 20260906013140 | 71 | 46 | 7.8 | 9.6 | 0.00 | 0.00 | 0.00 | 40 | 1017.8 |
| 20260906013129 | 70 | 46 | 7.8 | 8.7 | 0.00 | 0.00 | 0.00 | 40 | 1017.9 |
| 20260906012639 | 71 | 46 | 10.4 | 11.3 | 0.00 | 0.00 | 0.00 | 40 | 1017.6 |
| 20260906012134 | 72 | 46 | 10.4 | 13.9 | 0.00 | 0.00 | 0.00 | 40 | 1017.5 |
| 20260906012130 | 71 | 46 | 10.4 | 13.0 | 0.00 | 0.00 | 0.00 | 40 | 1017.7 |
| 20260906012031 | 71 | 46 | 12.2 | 15.6 | 0.00 | 0.00 | 0.00 | 39 | 1017.7 |
| 20260906011630 | 72 | 47 | 9.6 | 12.2 | 0.00 | 0.00 | 0.00 | 39 | 1017.6 |
| 20260906011124 | 72 | 48 | 11.3 | 13.0 | 0.00 | 0.00 | 0.00 | 38 | 1017.5 |
| 20260906011030 | 72 | 48 | 11.3 | 13.0 | 0.00 | 0.00 | 0.00 | 38 | 1017.7 |
| 20260906010620 | 73 | 51 | 12.2 | 14.8 | 0.00 | 0.00 | 0.00 | 38 | 1017.5 |
| 20260906010129 | 73 | 48 | 12.2 | 15.6 | 0.00 | 0.00 | 0.00 | 37 | 1017.8 |
| 20260906010116 | 73 | 46 | 13.0 | 16.5 | 0.00 | 0.00 | 0.00 | 37 | 1017.5 |
| 20260906005610 | 74 | 48 | 13.0 | 16.5 | 0.00 | 0.00 | 0.00 | 38 | 1017.5 |
| 20260906005132 | 73 | 46 | 13.0 | 16.5 | 0.00 | 0.00 | 0.00 | 38 | 1017.8 |
| 20260906005109 | 74 | 45 | 14.8 | 16.5 | 0.00 | 0.00 | 0.00 | 38 | 1017.5 |
| 20260906004608 | 74 | 46 | 12.2 | 15.6 | 0.00 | 0.00 | 0.00 | 37 | 1017.5 |
| 20260906004103 | 74 | 51 | 13.9 | 17.4 | 0.00 | 0.00 | 0.00 | 37 | 1017.5 |
| 20260906004032 | 74 | 51 | 13.9 | 17.4 | 0.00 | 0.00 | 0.00 | 37 | 1017.7 |
| 20260906003559 | 74 | 47 | 13.0 | 16.5 | 0.00 | 0.00 | 0.00 | 37 | 1017.5 |
| 20260906003130 | 74 | 47 | 13.0 | 15.6 | 0.00 | 0.00 | 0.00 | 37 | 1017.8 |
| 20260906003054 | 75 | 48 | 13.0 | 15.6 | 0.00 | 0.00 | 0.00 | 37 | 1017.6 |
| 20260906002549 | 75 | 51 | 12.2 | 15.6 | 0.00 | 0.00 | 0.00 | 37 | 1017.7 |
| 20260906002132 | 75 | 47 | 12.2 | 14.8 | 0.00 | 0.00 | 0.00 | 37 | 1017.9 |
| 20260906002043 | 75 | 46 | 11.3 | 13.9 | 0.00 | 0.00 | 0.00 | 36 | 1017.8 |
| 20260906001539 | 75 | 45 | 15.6 | 17.4 | 0.00 | 0.00 | 0.00 | 36 | 1017.6 |
| 20260906001231 | 75 | 43 | 14.8 | 16.5 | 0.00 | 0.00 | 0.00 | 36 | 1017.9 |
| 20260906001033 | 76 | 45 | 13.0 | 15.6 | 0.00 | 0.00 | 0.00 | 35 | 1017.6 |
| 20260906000529 | 76 | 30 | 13.0 | 14.8 | 0.00 | 0.00 | 0.00 | 35 | 1017.7 |
| 20260906000233 | 75 | 23 | 11.3 | 12.2 | 0.00 | 0.00 | 0.00 | 35 | 1018.0 |
| 20260906000024 | 76 | 42 | 13.9 | 15.6 | 0.00 | 0.00 | 0.00 | 35 | 1017.7 |
| 20260905235518 | 76 | 52 | 11.3 | 13.0 | 0.00 | 0.00 | 0.00 | 34 | 1017.8 |
| 20260905235231 | 76 | 46 | 8.7 | 12.2 | 0.00 | 0.00 | 0.00 | 34 | 1017.9 |
| 20260905235013 | 76 | 34 | 9.6 | 12.2 | 0.00 | 0.00 | 0.00 | 33 | 1017.7 |
| 20260905234508 | 76 | 15 | 8.7 | 9.6 | 0.00 | 0.00 | 0.00 | 33 | 1017.8 |
| 20260905234231 | 75 | 30 | 10.4 | 13.9 | 0.00 | 0.00 | 0.00 | 32 | 1017.9 |
| 20260905234002 | 76 | 43 | 9.6 | 10.4 | 0.00 | 0.00 | 0.00 | 33 | 1017.6 |
| 20260905233458 | 76 | 49 | 7.8 | 11.3 | 0.00 | 0.00 | 0.00 | 33 | 1017.6 |
| 20260905233231 | 76 | 45 | 9.6 | 11.3 | 0.00 | 0.00 | 0.00 | 33 | 1017.7 |
| 20260905233132 | 76 | 44 | 10.4 | 12.2 | 0.00 | 0.00 | 0.00 | 33 | 1017.8 |
| 20260905232956 | 76 | 56 | 7.0 | 13.0 | 0.00 | 0.00 | 0.00 | 32 | 1017.7 |
| 20260905232453 | 76 | 46 | 8.7 | 10.4 | 0.00 | 0.00 | 0.00 | 33 | 1017.6 |
| 20260905232131 | 76 | 49 | 5.2 | 7.0 | 0.00 | 0.00 | 0.00 | 33 | 1017.8 |
| 20260905231949 | 76 | 45 | 8.7 | 10.4 | 0.00 | 0.00 | 0.00 | 33 | 1017.6 |
| 20260905231444 | 76 | 48 | 10.4 | 12.2 | 0.00 | 0.00 | 0.00 | 33 | 1017.5 |
| 20260905231131 | 76 | 36 | 10.4 | 13.9 | 0.00 | 0.00 | 0.00 | 32 | 1017.6 |
| 20260905230940 | 76 | 45 | 13.0 | 16.5 | 0.00 | 0.00 | 0.00 | 32 | 1017.5 |
| 20260905230438 | 76 | 40 | 11.3 | 13.9 | 0.00 | 0.00 | 0.00 | 33 | 1017.6 |
| 20260905230131 | 76 | 24 | 15.6 | 17.4 | 0.00 | 0.00 | 0.00 | 32 | 1017.6 |